Regional Weather Roundup
Issued by NWS Newport/Morehead, NC

Current Version | Previous Version | Text Only | Print | Product List | Glossary On
Versions: 1 2 3 4 5 6 7 8 9 10 11 12 13 14 15 16 17 18 19 20 21 22 23 24 25 26 27 28 29 30 31 32 33 34 35 36 37 38 39 40 41 42 43 44 45 46 47 48 49 50
000 ASUS42 KMHX 252022 RWRMHX WEATHER ROUNDUP FOR EASTERN NORTH CAROLINA NATIONAL WEATHER SERVICE NEWPORT/MOREHEAD CITY NC 300 PM EST SUN JAN 25 2015 NOTE: "FAIR" INDICATES FEW OR NO CLOUDS BELOW 12,000 FEET WITH NO SIGNIFICANT WEATHER AND/OR OBSTRUCTIONS TO VISIBILITY NCZ015>017-031-032-045>047-102-103-252100- NORTH COAST CITY SKY/WX TMP DP RH WIND PRES REMARKS EDENTON SUNNY 52 32 46 S5 29.89F ELIZABETH CITY SUNNY 50 31 48 S12 29.89F KITTY HAWK CLEAR 49 30 47 SE3 29.90R MANTEO SUNNY 46 32 57 S10 29.92R $$ NCZ045>047-081-094-103-104-252100- CENTRAL COAST CITY SKY/WX TMP DP RH WIND PRES REMARKS FRISCO SUNNY 49 31 49 VRB5 29.93S SWANQUARTER NOT AVBL $$ NCZ095-097-098-100-101-252100- SOUTHERN COAST CITY SKY/WX TMP DP RH WIND PRES REMARKS BEAUFORT SUNNY 49 35 58 S7 29.91F CEDAR ISLAND NOT AVBL JACKSONVILLE SUNNY 53 36 52 SE7 29.90F PINEY ISLAND NOT AVBL WILMINGTON SUNNY 53 35 50 SE9 29.90F $$ NCZ011>013-027>030-043-044-078>080-089-090>093-098-252100- COASTAL PLAIN CITY SKY/WX TMP DP RH WIND PRES REMARKS AHOSKIE SUNNY 51 32 47 S6 29.88S CLINTON SUNNY 56 35 45 SE5 29.88F ELIZABETHTOWN SUNNY 56 34 44 S6 29.89R HAZE GOLDSBORO SUNNY 55 39 56 S1 29.86F GREENVILLE SUNNY 54 32 43 SW5 29.91F HAVELOCK SUNNY 54 34 46 SW7 29.91F KENANSVILLE SUNNY 55 31 39 CALM 29.89F KINSTON SUNNY 54 34 47 S3 29.90F NEW BERN SUNNY 56 32 40 CALM 29.90F RICHLANDS SUNNY 54 34 47 NE3 29.90S ROCKY MOUNT SUNNY 54 33 45 S3 29.88F WASHINGTON SUNNY 52 32 46 S8 29.89F WHITEVILLE SUNNY 55 33 43 S6 29.88F $$ AMZ130-135-150-152-154-156-158-170-250-252-270-ANZ085-086-088-633-658-670-252100- MARINE OBSERVATIONS STATION/POSITION TIME TEMP WIND PRES WAVE SWELL AIR SEA DIR/SP/G HT/PER HT/PER (UTC) (F) (DEG/KT/KT) (MB) (FT/S) (FT/S) CHESAPEAKE LIGHT 2000 45 170/ 12/ 13 1012.2 64 E VA BEACH 2000 46 53 250/ 6/ 8 1012.1 4/10 3/10 DUCK 2000 48 44 140/ 8/ 9 1011.8 2 E DUCK 2000 45 N/A 2/ 8 2/11 10 NE DUCK 2000 45 N/A 3/11 2/11 OREGON INLET 2000 46 46 180/ 8/ 10 1013.0 13E OREGON INLT 2000 46 N/A 4/10 2/11 HATTERAS CG 2000 49 53 190/ 4/ 7 1013.8 DIAMOND BUOY 2000 49 69 230/ 2/ 4 1013.6 4/10 3/10 17 S OCRACOKE NOT AVBL CAPE LOOKOUT 2000 48 180/ 7/ 8 1012.9 BEAUFORT LAB 2000 48 50 190/ 7/ 8 1011.9 27 SE WRIGHTSVLE NOT AVBL 5 SE WRIGHTSVLE 2000 49 52 150/ 8/ 8 1012.8 225 S CAPE HAT 1903 65 72 270/ 8/ 14 1014.1 7/ 8 7/ 8 41 SE CHARLESTON 2000 55 70 200/ 8/ 10 1013.1 3/ 6 2/ 6 $$

USA.gov is the U.S. government's official web portal to all federal, state and local government web resources and services.